Location: Marcé
(47.5801°N, 0.3280°W)
Time: 09:13:17
(UTC+01:00)

BlueWalker 3 - Pass Details

Date: 10 December 2022
Orbit: 499 x 517 km, 53.2° (Epoch: 29 January)

Event Time Altitude Azimuth Distance (km) Brightness Sun altitude
Rises 19:23:34 0° 295° (WNW) 2,628 6.5 -21.5°
Reaches altitude 10° 19:25:55 10° 285° (WNW) 1,735 5.6 -21.9°
Maximum altitude 19:29:25 31° 222° (SW) 904 3.6 -22.5°
Enters shadow 19:31:25 19° 173° (S) 1,236 3.9 -22.8°
